sat.trackr.live / text

‹ back to catalog

ONEWEB-0559

NORAD 56060 · 2023-043Q

PAYLOAD ACTIVE UNKNOWN

§ Identity

Operator
Country
UK
Launch date
2023-03-26
Launch site
SRILR
Launch vehicle
Mass (kg)
RCS (m²)

Purposes: comms

External: N2YO · Heavens-Above · Gunter

§ Orbital elements

Epoch: 2026-09-20T03:05:05.023104Z

Period
108.94 min
Inclination
87.9284°
Eccentricity
0.0001956
Mean motion
13.21824326 rev/d
Perigee alt
1,176.3 km
Apogee alt
1,179.2 km
Semi-major
7,555.9 km
B*
-2.1120e-5
RAAN
225.0774°
Arg perigee
74.6027°
Mean anomaly
285.5323°
Rev number
17,079

§ Raw data

ONEWEB-05591 56060U 23043Q   26263.12853036  .00000004  00000+0 -21120-4 0  99902 56060  87.9284 225.0774 0001956  74.6027 285.5323 13.21824326170795

JSON: /api/v1/satellites/56060 · /tle

For live sub-satellite position, see the globe view (requires WebGL).

§ Visibility from observer

Set your observer location to see the next 7 days of passes ≥ 10°. The values pass through the URL so the page stays shareable.

No JS? Fill the form by hand. The geolocation button needs JavaScript.